Ibiza, Spain

1:31 PM CEST on June 26, 2017 (GMT +0200)
Ibiza

Weather History for LEIB - December, 2012

Change the Weather History Date:

Monday, December 10, 2012

  Actual Average Record
Temperature  
Mean Temperature 52 °F -  
Max Temperature 60 °F 58 °F 66 °F (1997)
Min Temperature 43 °F 47 °F 42 °F (2008)
Degree Days  
Heating Degree Days 14    
Growing Degree Days 2 (Base 50)    
Moisture  
Dew Point 48 °F    
Average Humidity 79    
Maximum Humidity 94    
Minimum Humidity 58    
Precipitation  
Precipitation 0.00 in 0.06 in - ()
Sea Level Pressure  
Sea Level Pressure 30.08 in    
Wind  
Wind Speed 8 mph ()    
Max Wind Speed 16 mph    
Max Gust Speed -    
Visibility 6.7 miles    
Events      
Averages and records for this station are not official NWS values.
T = Trace of Precipitation, MM = Missing Value Source: Averaged Metar Reports

Daily Weather History Graph

Daily Weather History Graph

Search for Another Location

Airport or City:

Trip Planner

Search our weather history database for the weather conditions in past years. The results will help you decide how hot, cold, wet, or windy it might be!

Date:

Astronomy

Dec. 10, 2012 Rise Set
Actual Time 8:02 AM CET 5:32 PM CET
Civil Twilight 7:32 AM CET 6:02 PM CET
Nautical Twilight 6:59 AM CET 6:35 PM CET
Astronomical Twilight 6:26 AM CET 7:08 PM CET
Moon 4:28 AM CET (12/10) 3:09 PM CET (12/10)
Length of Visible Light 10h 29m
Length of Day
9h 30m
Waning Crescent, 12% of the Moon is Illuminated
Dec 10
Waning Crescent
Dec 13
New
Dec 20
First Quarter
Dec 28
Full
Jan 5
Last Quarter

Hourly Weather History & Observations

Time (CET) Temp. Dew Point Humidity Pressure Visibility Wind Dir Wind Speed Gust Speed Precip Events Conditions
12:00 AM 46.4 °F 44.6 °F 93% 30.21 in 6.2 mi Variable 1.2 mph - N/A   Partly Cloudy
1:00 AM 53 °F 43 °F 58% 30.21 in 12 mi SSW 11.5 mph - -   Scattered Clouds
1:00 AM 53.6 °F 44.6 °F 72% 30.18 in 6.2 mi SSW 10.4 mph - N/A   Partly Cloudy
5:30 AM 51.8 °F 48.2 °F 88% 30.12 in 6.2 mi West 4.6 mph - N/A   Partly Cloudy
6:00 AM 51.8 °F 46.4 °F 82% 30.12 in 6.2 mi West 5.8 mph - N/A   Partly Cloudy
6:30 AM 53.6 °F 48.2 °F 82% 30.12 in 6.2 mi SW 13.8 mph - N/A   Partly Cloudy
7:00 AM 54 °F 47 °F 69% 30.12 in 12 mi SSW 16.1 mph - -   Scattered Clouds
7:00 AM 55.4 °F 48.2 °F 77% 30.09 in 6.2 mi SSW 15.0 mph - N/A   Partly Cloudy
7:30 AM 55.4 °F 50.0 °F 82% 30.09 in 6.2 mi SSW 13.8 mph - N/A   Partly Cloudy
8:00 AM 53.6 °F 50.0 °F 88% 30.09 in 6.2 mi SW 15.0 mph - N/A   Partly Cloudy
8:30 AM 55.4 °F 50.0 °F 82% 30.09 in 6.2 mi SW 13.8 mph - N/A   Partly Cloudy
9:00 AM 55.4 °F 50.0 °F 82% 30.09 in 6.2 mi SW 13.8 mph - N/A   Scattered Clouds
10:00 AM 57.2 °F 50.0 °F 77% 30.12 in 6.2 mi SW 13.8 mph - N/A   Scattered Clouds
10:30 AM 57.2 °F 50.0 °F 77% 30.12 in 6.2 mi SW 13.8 mph - N/A   Scattered Clouds
11:00 AM 59.0 °F 50.0 °F 72% 30.12 in 6.2 mi SW 10.4 mph - N/A   Scattered Clouds
11:30 AM 59.0 °F 50.0 °F 72% 30.09 in 6.2 mi SW 9.2 mph - N/A   Partly Cloudy
12:00 PM 59.0 °F 50.0 °F 72% 30.09 in 6.2 mi SW 11.5 mph - N/A   Partly Cloudy
12:30 PM 57.2 °F 50.0 °F 77% 30.09 in 6.2 mi SW 13.8 mph - N/A   Partly Cloudy
1:00 PM 59 °F 48 °F 59% 30.08 in 11 mi SW 12.7 mph - -   Scattered Clouds
1:00 PM 57.2 °F 50.0 °F 77% 30.06 in 6.2 mi SW 11.5 mph - N/A   Partly Cloudy
1:30 PM 59.0 °F 48.2 °F 67% 30.06 in 6.2 mi SSW 10.4 mph - N/A   Partly Cloudy
2:00 PM 59.0 °F 50.0 °F 72% 30.06 in 6.2 mi SW 10.4 mph - N/A   Partly Cloudy
2:30 PM 59.0 °F 48.2 °F 67% 30.04 in 6.2 mi SSW 9.2 mph - N/A   Partly Cloudy
3:00 PM 57.2 °F 50.0 °F 77% 30.04 in 6.2 mi SSW 9.2 mph - N/A   Partly Cloudy
3:30 PM 57.2 °F 48.2 °F 72% 30.04 in 6.2 mi SSW 5.8 mph - N/A   Partly Cloudy
4:00 PM 57.2 °F 48.2 °F 72% 30.04 in 6.2 mi SSW 3.5 mph - N/A   Partly Cloudy
4:30 PM 57.2 °F 48.2 °F 72% 30.04 in 6.2 mi Variable 1.2 mph - N/A   Partly Cloudy
5:00 PM 55.4 °F 48.2 °F 77% 30.04 in 6.2 mi Variable 1.2 mph - N/A   Partly Cloudy
5:30 PM 55.4 °F 48.2 °F 77% 30.04 in 6.2 mi Calm Calm - N/A   Partly Cloudy
6:00 PM 51.8 °F 46.4 °F 82% 30.04 in 6.2 mi Variable 2.3 mph - N/A   Partly Cloudy
6:30 PM 50.0 °F 46.4 °F 87% 30.04 in 6.2 mi Variable 2.3 mph - N/A   Partly Cloudy
7:00 PM 50 °F 45 °F 75% 30.06 in 11 mi NW 2.3 mph - -   Scattered Clouds
7:00 PM 50.0 °F 46.4 °F 87% 30.04 in 6.2 mi Variable 2.3 mph - N/A   Partly Cloudy
7:30 PM 50.0 °F 46.4 °F 87% 30.06 in 6.2 mi Variable 1.2 mph - N/A   Partly Cloudy
8:00 PM 50.0 °F 46.4 °F 87% 30.06 in 6.2 mi Variable 1.2 mph - N/A   Partly Cloudy
8:30 PM 50.0 °F 46.4 °F 87% 30.06 in 6.2 mi Calm Calm - N/A   Partly Cloudy
9:00 PM 50.0 °F 46.4 °F 87% 30.06 in 6.2 mi Calm Calm - N/A   Partly Cloudy
9:30 PM 50.0 °F 46.4 °F 87% 30.06 in 6.2 mi Variable 1.2 mph - N/A   Partly Cloudy
10:00 PM 50.0 °F 48.2 °F 94% 30.06 in 6.2 mi North 6.9 mph - N/A   Partly Cloudy
10:30 PM 51.8 °F 46.4 °F 82% 30.09 in - North 8.1 mph - N/A   Clear
11:00 PM 51.8 °F 46.4 °F 82% 30.09 in - North 6.9 mph - N/A   Clear
11:30 PM 51.8 °F 48.2 °F 88% 30.09 in - North 8.1 mph - N/A   Clear